Auburn, NY

3:09 AM EST on February 14, 2016 (GMT -0500)
Pinfeather Place Fleming, NY | | Change Station
CLOSE
Current Station
Personal Weather Station
Location: Auburn, NY
Elevation: 741 ft
Nearby Weather Stations
Active Advisory: Wind Chill Warning Active Notice: Local Storm Report

Elev 741 ft 42.87 °N, 76.54 °W | Updated 3 seconds ago

Mostly Cloudy
Mostly Cloudy
-11.2 °F
Feels Like -11 °F
N
0.4
Wind Variable Wind from ESE
Gusts 2.5 mph

Today
High -- | Low -- °F
--% Chance of Precip.
Yesterday
High -- | Low -- °F
Precip. -- in
Pressure 30.52 in
Visibility 9.0 miles
Clouds Mostly Cloudy 2200 ft
Windchill -11 °F
Dew Point -25 °F
Humidity 49%
Rainfall 0.00 in
Snow Depth Not available.
7:05 AM 5:35 PM
Waxing Crescent, 39% visible
METAR KSYR 140754Z 00000KT 9SM -SN BKN022 M27/M31 A3048 RMK AO2 SLP333 P0000 T12671306 $
Pressure 30.52 in
Visibility 9.0 miles
Clouds Mostly Cloudy 2200 ft
Windchill -11 °F
Dew Point -25 °F
Humidity 49%
Rainfall 0.00 in
Snow Depth Not available.
7:05 AM 5:35 PM
Waxing Crescent, 39% visible
METAR KSYR 140754Z 00000KT 9SM -SN BKN022 M27/M31 A3048 RMK AO2 SLP333 P0000 T12671306 $

10-Day Weather Forecast

Almanac

Astronomy

Feb. 14, 2016 Rise Set
Actual Time
Civil Twilight
Nautical Twilight
Astronomical Twilight
Moon
Length of Visible Light
Length of Day
Tomorrow will be .
, % of the Moon is Illuminated

Today's Extremes

State Highs State Lows

Community

WunderPhotos

Upload Photos

1,892,757 photos uploaded!

WunderBlog® & News

Nearby

Air Quality

  Air Quality AQ Index Pollutant
Not available.

Snow Depth

Station Depth Elevation

Earthquake Activity

City Distance Mag. Time & Date
Minimum magnitude displayed is 2.5.

Coastal Water Temperatures

Place Temperature

Stations

Nearby Weather Stations

Station Location Temp. Windchill Dew Point Humidity Wind Precip. Elev Updated Type
                   

Watches & Warnings

Wind Chill Warning
Issued: 9:38 PM EST Feb. 13, 2016 – National Weather Service

... Wind chill warning remains in effect until 1 PM EST Sunday...

* locations... the southern tier... Syracuse area and The Finger
lakes regions of New York.

* Hazard types... dangerously low wind chills and extreme cold.

* Timing... through Sunday morning.

* Impacts... potential for frostbite and hypothermia. The extreme
cold may also lead to pipes freezing.

* Wind chill readings... as low as 29 below. Lowest wind chill
values will be over the higher terrain.

* Winds... northwest 10 to 20 mph with gusts up to 30
mph... gradually diminishing overnight through Sunday morning.

* Temperatures... near zero to 10 below zero overnight into Sunday
morning. Above zero by midday Sunday.

Precautionary/preparedness actions...

A wind chill warning means the combination of very cold air and
strong winds will create dangerously low wind chill values. This
will result in frost bite and lead to hypothermia or death if
precautions are not taken.